This demonstration page uses our WeatherBlox Daily Observations layout. Learn more.

Left ArrowRight Arrow

Hourly Observations for July 22, 2021

Temp ( °F °C ) Dew Point ( °F °C ) Humidity (%) Winds ( mph kmh ) Pressure ( in mb ) Visibility ( mi km ) Precip ( " mm )
12:53 am 00:53 Clear 72 22.2 58 14.4 61 61 WSW 3 6 29.83 1010 10 16 0.00 0.00
1:53 am 01:53 Clear 66 18.9 61 16.1 84 84 Calm 29.84 1011 10 16 0.00 0.00
2:53 am 02:53 Clear 63 17.2 60 15.6 90 90 E 5 7 29.84 1010 9 14 0.00 0.00
3:53 am 03:53 Clear 61 16.1 59 15 93 93 WNW 5 7 29.85 1011 9 14 0.00 0.00
4:53 am 04:53 Clear 61 16.1 58 14.4 90 90 W 5 7 29.85 1011 8 13 0.00 0.00
5:53 am 05:53 Sunny 59 15 57 13.9 93 93 SSW 7 11 29.87 1012 7 11 0.00 0.00
6:53 am 06:53 Sunny 63 17.2 58 14.4 84 84 SSW 10 17 29.87 1012 9 14 0.00 0.00
7:53 am 07:53 Sunny 70 21.1 58 14.4 66 66 SSW 9 15 29.87 1011 10 16 0.00 0.00
8:53 am 08:53 Sunny 75 23.9 59 15 58 58 SW 10 17 29.87 1012 10 16 0.00 0.00
9:53 am 09:53 Sunny 81 27.2 59 15 47 47 SW 8 13 29.87 1011 10 16 0.00 0.00
10:53 am 10:53 Sunny 85 29.4 50 10 30 30 NW 9 15 29.85 1011 10 16 0.00 0.00
11:53 am 11:53 Sunny 88 31.1 46 7.8 23 23 NW 6 9 29.83 1010 10 16 0.00 0.00
12:53 pm 12:53 Sunny 88 31.1 47 8.3 24 24 VRB 7 11 29.82 1010 10 16 0.00 0.00
1:53 pm 13:53 Sunny 91 32.8 48 8.9 23 23 NW 7 11 29.80 1009 10 16 0.00 0.00
2:53 pm 14:53 Sunny 94 34.4 47 8.3 20 20 W 13 20 29.79 1009 10 16 0.00 0.00
3:53 pm 15:53 Sunny 94 34.4 47 8.3 20 20 W 9 15 29.78 1008 10 16 0.00 0.00
4:53 pm 16:53 Sunny 95 35 47 8.3 19 19 W 12 19 29.77 1008 10 16 0.00 0.00
5:53 pm 17:53 Partly Cloudy 92 33.3 50 10 24 24 NNW 14 22 29.77 1008 10 16 0.00 0.00
6:53 pm 18:53 Sunny 91 32.8 36 2.2 14 14 NW 22 35 29.78 1008 10 16 0.00 0.00
7:53 pm 19:53 Sunny 88 31.1 20 -6.7 8 8 WNW 18 30 29.79 1009 10 16 0.00 0.00
8:53 pm 20:53 Sunny 82 27.8 20 -6.7 10 10 NW 9 15 29.82 1010 10 16 0.00 0.00
9:53 pm 21:53 Clear 73 22.8 24 -4.4 16 16 W 6 9 29.85 1011 10 16 0.00 0.00
10:53 pm 22:53 Clear 64 17.8 30 -1.1 28 28 SW 6 9 29.88 1012 10 16 0.00 0.00
11:53 pm 23:53 Clear 62 16.7 29 -1.7 29 29 SW 8 13 29.89 1012 10 16 0.00 0.00

Powered by AerisWeather